^^
Meteo Knjazevac Station Historical Data
Daily Summary for January 6, 2021 Units:  Metric    English   Both
Daily Weekly Monthly Yearly Custom
  High: Low: Average:
Temperature: 18.5 °C 16.8 °C 17.6 °C
Dew Point: 17 °C 16 °C 16.4 °C
Humidity: 95% 91% 93%
Wind Speed: 4.8km/h 0km/h 1.6km/h
Wind Gust: 9.7km/h - -
Wind- - South
Pressure: 1015.5 hPa 1015.1 hPa -
Precipitation: 0 mm    
Historical Graphs
 
 
Tabular Data for January 6, 2021
Time Temperature Dew Point Pressure Wind Wind Speed Wind Gust Humidity Rainfall Rate (Hourly) solar Conditions
00:00 18.5 °C 17 °C 1015.1 hPa Calm   6.4 km/h 91% 0 mm 0 W/m2
00:10 18.4 °C 16.9 °C 1015.1 hPa SSE 1.6 km/h 4.8 km/h 91% 0 mm 0 W/m2
00:20 18.3 °C 16.8 °C 1015.1 hPa Calm   3.2 km/h 91% 0 mm 0 W/m2
00:30 18.2 °C 16.7 °C 1015.1 hPa Calm     91% 0 mm 0 W/m2
00:40 18.1 °C 16.6 °C 1015.1 hPa NNW 1.6 km/h 3.2 km/h 91% 0 mm 0 W/m2
00:50 18.1 °C 16.6 °C 1015.1 hPa North 1.6 km/h 3.2 km/h 91% 0 mm 0 W/m2
01:00 18 °C 16.8 °C 1015.1 hPa WSW 3.2 km/h 9.7 km/h 93% 0 mm 0 W/m2
01:10 17.9 °C 16.8 °C 1015.1 hPa NW 1.6 km/h 8 km/h 93% 0 mm 0 W/m2
01:20 17.7 °C 16.6 °C 1015.1 hPa South 3.2 km/h 9.7 km/h 93% 0 mm 0 W/m2
01:30 17.6 °C 16.4 °C 1015.1 hPa Calm   8 km/h 93% 0 mm 0 W/m2
01:40 17.5 °C 16.3 °C 1015.1 hPa Calm   3.2 km/h 93% 0 mm 0 W/m2
01:50 17.5 °C 16.3 °C 1015.1 hPa NE 1.6 km/h 4.8 km/h 93% 0 mm 0 W/m2
02:00 17.4 °C 16.3 °C 1015.1 hPa SSW 1.6 km/h 4.8 km/h 93% 0 mm 0 W/m2
02:10 17.3 °C 16.3 °C 1015.1 hPa SW 1.6 km/h 4.8 km/h 94% 0 mm 0 W/m2
02:20 17.2 °C 16.2 °C 1015.1 hPa South 4.8 km/h 8 km/h 94% 0 mm 0 W/m2
02:30 17.2 °C 16.2 °C 1015.1 hPa SW 3.2 km/h 4.8 km/h 94% 0 mm 0 W/m2
02:40 17.1 °C 16.1 °C 1015.1 hPa South 3.2 km/h 9.7 km/h 94% 0 mm 0 W/m2
02:50 17 °C 16 °C 1015.1 hPa SSW 1.6 km/h 8 km/h 94% 0 mm 0 W/m2
03:00 16.9 °C 16.1 °C 1015.1 hPa SSE 1.6 km/h 8 km/h 95% 0 mm 0 W/m2
03:10 16.9 °C 16.1 °C 1015.5 hPa SE 1.6 km/h 8 km/h 95% 0 mm 0 W/m2
03:20 16.9 °C 16.1 °C 1015.5 hPa ENE 1.6 km/h 6.4 km/h 95% 0 mm 0 W/m2
03:30 16.8 °C 16 °C 1015.5 hPa Calm   3.2 km/h 95% 0 mm 0 W/m2
Knjazevac, Serbia
Compliments of Weather Underground - 2 mb